Buffalo, NY

1:11 AM EST on January 22, 2017 (GMT -0500)
Buffalo Niagara International

Weather History for KBUF - February, 2012

Change the Weather History Date:

Wednesday, February 8, 2012

  Actual Average Record
Temperature  
Mean Temperature 24 °F 25 °F  
Max Temperature 29 °F 32 °F 63 °F (1900)
Min Temperature 19 °F 18 °F -14 °F (1934)
Degree Days  
Heating Degree Days 41 40  
Month to date heating degree days 251 320  
Since 1 July heating degree days 3246 3979  
Cooling Degree Days 0 0  
Month to date cooling degree days 0 0  
Year to date cooling degree days 0 0  
Moisture  
Dew Point 17 °F    
Average Humidity 71    
Maximum Humidity 84    
Minimum Humidity 58    
Precipitation  
Precipitation 0.00 in 0.09 in 0.61 in (1971)
Month to date precipitation 0.14 0.70  
Year to date precipitation 4.57 3.88  
Snow  
Snow 0.00 in 0.60 in 6.70 in (1971)
Month to date snowfall T 5.4  
Since 1 July snowfall 24.6 66.9  
Snow Depth 0.00 in    
Sea Level Pressure  
Sea Level Pressure 30.25 in    
Wind  
Wind Speed 6 mph (WSW)    
Max Wind Speed 16 mph    
Max Gust Speed 22 mph    
Visibility 10 miles    
Events      
T = Trace of Precipitation, MM = Missing Value Source: NWS Daily Summary

Daily Weather History Graph

Daily Weather History Graph

Search for Another Location

Airport or City:

Trip Planner

Search our weather history database for the weather conditions in past years. The results will help you decide how hot, cold, wet, or windy it might be!

Date:

Astronomy

Feb. 08, 2012 Rise Set
Actual Time 7:22 AM EST 5:36 PM EST
Civil Twilight 6:52 AM EST 6:06 PM EST
Nautical Twilight 6:19 AM EST 6:39 PM EST
Astronomical Twilight 5:46 AM EST 7:12 PM EST
Moon 6:57 PM EST (2/8) 7:22 AM EST (2/8)
Length of Visible Light 11h 13m
Length of Day
10h 14m
Full, 99% of the Moon is Illuminated
Feb 8
Full
Feb 14
Last Quarter
Feb 21
New
Feb 29
First Quarter
Mar 8
Full

Hourly Weather History & Observations

Time (EST) Temp. Windchill Dew Point Humidity Pressure Visibility Wind Dir Wind Speed Gust Speed Precip Events Conditions
12:54 AM 23.0 °F - 18.0 °F 81% 30.35 in 10.0 mi Calm Calm - N/A   Scattered Clouds
1:54 AM 21.9 °F - 17.1 °F 82% 30.35 in 10.0 mi Calm Calm - N/A   Mostly Cloudy
2:54 AM 21.9 °F 17.2 °F 17.1 °F 82% 30.34 in 10.0 mi NNW 3.5 mph - N/A   Mostly Cloudy
3:54 AM 21.9 °F 17.2 °F 17.1 °F 82% 30.32 in 10.0 mi North 3.5 mph - N/A   Mostly Cloudy
4:54 AM 21.0 °F 16.2 °F 16.0 °F 81% 30.32 in 10.0 mi North 3.5 mph - N/A   Scattered Clouds
5:54 AM 21.0 °F - 16.0 °F 81% 30.31 in 10.0 mi Calm Calm - N/A   Mostly Cloudy
6:54 AM 21.0 °F - 15.1 °F 78% 30.31 in 10.0 mi Calm Calm - N/A   Mostly Cloudy
7:54 AM 19.9 °F 13.4 °F 16.0 °F 85% 30.32 in 10.0 mi South 4.6 mph - N/A   Mostly Cloudy
8:54 AM 23.0 °F - 17.1 °F 78% 30.32 in 10.0 mi Calm Calm - N/A   Mostly Cloudy
9:54 AM 24.1 °F - 17.1 °F 75% 30.31 in 10.0 mi Calm Calm - N/A   Mostly Cloudy
10:54 AM 26.1 °F - 16.0 °F 66% 30.30 in 10.0 mi Calm Calm - N/A   Mostly Cloudy
11:54 AM 26.1 °F 19.4 °F 17.1 °F 69% 30.27 in 10.0 mi SW 5.8 mph - N/A   Mostly Cloudy
12:54 PM 28.0 °F - 18.0 °F 66% 30.24 in 10.0 mi Calm Calm - N/A   Mostly Cloudy
1:54 PM 28.0 °F 21.7 °F 17.1 °F 63% 30.22 in 10.0 mi West 5.8 mph - N/A   Mostly Cloudy
2:54 PM 28.9 °F 21.1 °F 18.0 °F 64% 30.20 in 10.0 mi SSW 8.1 mph - N/A   Mostly Cloudy
3:54 PM 28.0 °F 18.1 °F 15.1 °F 58% 30.19 in 10.0 mi WSW 11.5 mph - N/A   Mostly Cloudy
4:54 PM 28.0 °F 19.3 °F 16.0 °F 61% 30.17 in 10.0 mi WSW 9.2 mph - N/A   Mostly Cloudy
5:54 PM 28.0 °F 20.0 °F 16.0 °F 61% 30.17 in 10.0 mi WSW 8.1 mph - N/A   Mostly Cloudy
6:54 PM 28.0 °F 18.6 °F 19.0 °F 69% 30.17 in 10.0 mi WSW 10.4 mph - N/A   Mostly Cloudy
7:54 PM 28.0 °F 18.6 °F 19.9 °F 72% 30.16 in 10.0 mi WSW 10.4 mph - N/A   Mostly Cloudy
8:54 PM 28.0 °F 18.1 °F 21.0 °F 75% 30.16 in 10.0 mi WSW 11.5 mph - N/A   Mostly Cloudy
9:54 PM 28.9 °F 18.6 °F 21.0 °F 72% 30.16 in 10.0 mi West 12.7 mph - N/A   Mostly Cloudy
10:54 PM 28.0 °F 17.0 °F 16.0 °F 61% 30.17 in 10.0 mi West 13.8 mph - N/A   Scattered Clouds
11:54 PM 27.0 °F 17.3 °F 16.0 °F 63% 30.16 in 10.0 mi WSW 10.4 mph - N/A   Partly Cloudy